Flag for U.S.A. Weather past 2 weeks in Avalon (Santa Catalina Island), California, U.S.A.

Now
53 °F

Low clouds.


Feels Like: 52 °F
Forecast: 55 / 62 °F
Wind: 5 mph from Northwest

Location: Catalina Airport

Current Time: Dec 19, 2014 at 1:46:12 PM

Latest Report: Dec 19, 2014 at 12:51 PM


Visibility: 7 mi

Pressure: 30.21 "Hg

Humidity: 89%

Dew point: 50 °F

Location of Avalon (Santa Catalina Island)Location

Historic Weather in Avalon (Santa Catalina Island) — Graph

°F

Avalon (Santa Catalina Island) temperature yesterday

Maximum temperature yesterday: 55 °F (at 10:02 AM)
Minimum temperature yesterday: 51 °F (at 12:51 AM)
Average temperature yesterday: 52 °F

Past Weeks' High & Low Weather Summary

 TemperatureHumidityPressure
High70 °F (Dec 8, 12:51 PM)100% (Dec 6, 7:51 AM)30.24 "Hg (Dec 6, 7:51 AM)
Low49 °F (Dec 15, 3:51 AM)27% (Dec 9, 8:51 PM)29.83 "Hg (Dec 12, 1:51 AM)
Average56 °F78%30.06 "Hg
* Reported Dec 4 11:51 AM — Dec 19 11:51 AM, Avalon (Santa Catalina Island), Weather by CustomWeather, © 2014

Note: Actual official high and low records may vary slightly from our data, if they occured in-between our weather recording intervals... More about our weather records

Advertising

Avalon (Santa Catalina Island) weather history for previous 24 hours

 ConditionsComfort  
Time TempWeatherWind HumidityBarometerVisibility
11:51 AM
Dec 19
54 °FPartly sunny.7 mph93%30.21 "Hg10 mi
10:51 AM55 °FPartly sunny.No wind87%30.23 "Hg8 mi
9:51 AM54 °FFog.6 mph90%30.24 "Hg5 mi
8:51 AM52 °FPartly sunny.5 mph100%30.23 "Hg8 mi
7:57 AM52 °FFog.5 mph97%30.22 "Hg2 mi
6:51 AM52 °FFog.No wind97%30.22 "Hg3 mi
5:59 AM51 °FFog.No wind100%30.22 "Hg2 mi
4:51 AM51 °FPassing clouds.No wind100%30.20 "Hg8 mi
3:51 AM52 °FFog.5 mph97%30.19 "Hg0 mi
2:51 AM52 °FFog.6 mph93%30.19 "Hg0 mi
1:51 AM50 °FPassing clouds.6 mph96%30.20 "Hg8 mi
12:57 AM51 °FFog.5 mph92%30.21 "Hg1 mi
11:59 PM
Dec 18
51 °FPassing clouds.7 mph92%30.20 "Hg10 mi
10:51 PM51 °FPassing clouds.3 mph92%30.22 "Hg10 mi
9:51 PM51 °FClear.No wind89%30.21 "Hg10 mi
8:51 PM51 °FClear.5 mph89%30.20 "Hg10 mi
7:51 PM52 °FClear.3 mph86%30.20 "Hg10 mi
6:51 PM52 °FPassing clouds.3 mph89%30.19 "Hg10 mi
5:51 PM52 °FOvercast.5 mph89%30.18 "Hg10 mi
4:51 PM52 °FOvercast.3 mph93%30.16 "Hg10 mi
3:51 PM52 °FMostly cloudy.5 mph93%30.15 "Hg10 mi
2:51 PM51 °FLight rain. Fog.6 mph96%30.15 "Hg1 mi
2:02 PM52 °FLight rain. Fog.6 mph93%30.15 "Hg1 mi
Weather by CustomWeather, © 2014

See weather overviewHow to use our weather pages